sat.trackr.live / text

‹ back to catalog

STARLINK-5673

NORAD 55462 · 2023-015P

PAYLOAD ACTIVE UNKNOWN

§ Identity

Operator
Country
US
Launch date
2023-02-02
Launch site
AFETR
Launch vehicle
Mass (kg)
RCS (m²)

Purposes: comms

External: N2YO · Heavens-Above · Gunter

§ Orbital elements

Epoch: 2026-05-24T14:20:30.368544Z

Period
94.27 min
Inclination
43.0004°
Eccentricity
0.0000983
Mean motion
15.27580325 rev/d
Perigee alt
482.4 km
Apogee alt
483.7 km
Semi-major
6,861.2 km
B*
2.7725e-5
RAAN
259.8127°
Arg perigee
261.3423°
Mean anomaly
98.7317°
Rev number
18,233

§ Raw data

STARLINK-56731 55462U 23015P   26144.59757371  .00000501  00000+0  27725-4 0  99962 55462  43.0004 259.8127 0000983 261.3423  98.7317 15.27580325182330

JSON: /api/v1/satellites/55462 · /tle

For live sub-satellite position, see the globe view (requires WebGL).

§ Visibility from observer

Set your observer location to see the next 7 days of passes ≥ 10°. The values pass through the URL so the page stays shareable.

No JS? Fill the form by hand. The geolocation button needs JavaScript.